Current weather by "City, St" or "zip code"  
 

Current Conditions: Elizabethton Municipal Airport, TN

Overcast


66.0 F

Last Updated on Oct 29 2020, 7:55 pm EDT
Humidity: 94%
Wind Speed: N 0.0 mph
Barometer 29.57 in
Dewpoint: 64.4 F
Visibility: 10.00 mi
Precip: --
Heat Index: NA
Wind Chill: NA
Current conditions at:

Elizabethton Municipal Airport, TN (K0A9)

Lat: 36.371 Lon: 82.173

Local Radar Image active severe weather and emergency alerts image image weather storm and storm spotter reports image weather observation monitoring service image
Local
Radar
Active
Alerts
Storm Reports Obs
Monitoring

Sign-up For Email & Text Message Weather Alert Notification Services



Advertise Here

Observation History for Elizabethton Municipal Airport, TN


Time Wind
(mph)
Vis
(mi)
Weather Precip (in) Temperature (F) Relative
Humidity
Wind
Chill
(F)
Heat
Index
(F)
Pressure
Air Dwpt altimeter
(in)
sea level
(mb)
Rmks
7:55 pm EDT N 0.0 10.00 Overcast -- 66.0 64.4 94% NA NA 29.57 M
6:55 pm EDT NW 4.6 10.00 Mostly Cloudy -- 70.0 64.4 83% NA NA 29.55 M
5:55 pm EDT W 4.6 10.00 Mostly Cloudy -- 75.0 62.6 65% NA NA 29.56 M
4:55 pm EDT W 9.2 10.00 A Few Clouds -- 79.0 62.6 58% NA NA 29.56 M
3:55 pm EDT W 10.4 G 16.1 10.00 Partly Cloudy -- 77.0 64.4 65% NA NA 29.56 M
2:55 pm EDT W 9.2 G 20.7 10.00 Mostly Cloudy -- 77.0 68.0 74% NA NA 29.59 M
2:35 pm EDT W 13.8 G 19.6 10.00 Mostly Cloudy -- 75.0 68.0 78% NA NA 29.59 M
1:55 pm EDT W 9.2 G 18.4 10.00 Overcast -- 72.0 68.0 88% NA NA 29.62 M
12:55 pm EDT W 6.9 G 15.0 2.00 Light Drizzle 00.01 68.0 66.2 94% NA NA 29.63 M
11:55 am EDT W 5.8 G 12.7 3.00 Fog/Mist -- 68.0 66.2 94% NA NA 29.63 M
11:35 am EDT W 9.2 G 16.1 1.25 Fog/Mist -- 68.0 66.2 94% NA NA 29.62 M
10:55 am EDT W 12.7 G 25.3 5.00 Fog/Mist -- 68.0 66.2 94% NA NA 29.58 M
9:55 am EDT NW 5.8 9.00 Light Drizzle -- 68.0 68.0 100% NA NA 29.47 M
9:35 am EDT N 0.0 2.50 Light Drizzle -- 68.0 66.2 94% NA NA 29.44 M
8:55 am EDT NE 9.2 2.50 Light Rain -- 68.0 66.2 94% NA NA 29.42 M
7:55 am EDT NE 9.2 4.00 Heavy Rain -- 68.0 66.2 94% NA NA 29.47 M
6:55 am EDT NE 4.6 4.00 Light Rain -- 66.0 66.2 100% NA NA 29.60 M
5:55 am EDT E 4.6 10.00 Overcast -- 64.0 64.4 100% NA NA 29.67 M
4:55 am EDT N 0.0 8.00 Light Rain -- 64.0 64.4 100% NA NA 29.73 M
3:55 am EDT N 0.0 10.00 Light Rain -- 64.0 64.4 100% NA NA 29.78 M
3:35 am EDT E 3.5 9.00 Light Rain -- 64.0 64.4 100% NA NA 29.79 M
2:15 am EDT SE 4.6 8.00 Light Rain -- 66.0 64.4 94% NA NA 29.84 M
1:55 am EDT N 0.0 8.00 Light Rain -- 66.0 64.4 94% NA NA 29.85 M
12:55 am EDT E 4.6 10.00 Light Drizzle -- 66.0 64.4 94% NA NA 29.88 M

Regional Weather Observation


Abingdon, VA (KVJI)

Partly Cloudy
66.0 F

Elizabethton Municipal Airport, TN (K0A9)

Overcast
66.0 F

Wise / Lonesome Pine, VA (KLNP)

Partly Cloudy
61.0 F

Watauga County Hospital Heliport, NC (KTNB)

NULL
67.0 F

Jefferson - Ashe County Airport, NC (KGEV)

Partly Cloudy
66.0 F

Marion / Wytheville, VA (KMKJ)

Partly Cloudy
66.0 F